Regional Weather Roundup
Issued by NWS

Home | Current Version | Previous Version | Text Only | Print | Product List | Glossary On
Versions: 1 2 3 4 5 6 7 8 9 10 11 12 13 14 15 16 17 18 19 20 21 22 23 24 25 26 27 28 29 30 31 32 33 34 35 36 37 38 39 40 41 42 43 44 45 46 47 48 49 50
000
ASUS43 KFSD 311810
RWRSD

WEATHER ROUNDUP FOR SOUTH DAKOTA
NATIONAL WEATHER SERVICE SIOUX FALLS SD
100 PM CDT TUE MAY 31 2016

NOTE: "FAIR" INDICATES FEW OR NO CLOUDS BELOW 12,000 FEET WITH NO
SIGNIFICANT WEATHER AND/OR OBSTRUCTIONS TO VISIBILITY.


SDZ001>005-009-010-012>017-311900-
NORTHWEST AND NORTH CENTRAL SOUTH DAKOTA

CITY           SKY/WX    TMP DP  RH WIND       PRES   REMARKS
BUFFALO          N/A     52  48  86 W36G48    29.81R
FAITH            N/A     52  44  74 W31G40    29.86F
MOBRIDGE       MOSUNNY   63  44  50 W23G35    29.77F
$$

SDZ012>016-024>037-041>051-057-063-072>074-311900-
SOUTHWEST AND SOUTH CENTRAL SOUTH DAKOTA

CITY           SKY/WX    TMP DP  RH WIND       PRES   REMARKS
RAPID CTY ARPT CLOUDY    64  37  36 W20G29    29.96S
PIERRE         CLOUDY    65  43  44 W23G30    29.88R
CUSTER         CLOUDY    51  31  46 W22G44    30.04R
ELLSWORTH AFB  CLOUDY    63  39  41 W17G29    29.95S
PHILIP         CLOUDY    66  42  41 W28G35    29.91S
PINE RIDGE     SUNNY     66  32  28 W29G39    30.01F
WINNER         FAIR      72  40  31 W18G29    29.92F
$$

SDZ004>011-016>023-039-040-311900-
NORTHEAST SOUTH DAKOTA

CITY           SKY/WX    TMP DP  RH WIND       PRES   REMARKS
ABERDEEN       PTSUNNY   64  47  53 W20G25    29.82S
WATERTOWN      MOSUNNY   65  46  50 W18G25    29.87S
BROOKINGS      SUNNY     66  45  46 W20G28    29.90S
SISSETON         N/A     68  46  45 W23G35    29.81R
$$

SDZ017-020-022-023-036>040-048>070-311900-
SOUTHEAST SOUTH DAKOTA

CITY           SKY/WX    TMP DP  RH WIND       PRES   REMARKS
SIOUX FALLS    MOSUNNY   68  49  50 NW15G21   29.93S
HURON          SUNNY     69  45  41 W23G30    29.88F
CHAMBERLAIN    SUNNY     71  49  44 SW14G20   29.91F
MITCHELL       SUNNY     69  47  45 W13       29.92F
YANKTON        SUNNY     68  46  45 NW12G17   29.95F
$$

ABBREVIATIONS USED IN REMARKS
   TC - TEMPERATURE IN CELSIUS
  WCI - WIND CHILL INDEX
   HX - HEAT INDEX
  VSB - VISIBILITY





USA.gov is the U.S. government's official web portal to all federal, state and local government web resources and services.